Location: Unspecified
(0.0000°N, 0.0000°E)
Time: 20:18:08
(UTC+00:00)

deb Explorer IX - All Passes

Search period start: 03 March 2015 00:00
Search period end: 13 March 2015 00:00
Orbit: 551 x 1172 km, 38.8° (Epoch: 02 March)

Date Brightness Start Highest point End Pass type
(mag) Time Alt. Az. Time Alt. Az. Time Alt. Az.
03 Mar - 06:55:03 10° N 07:00:09 21° NE 07:05:03 10° E daylight
03 Mar - 08:41:49 10° NW 08:48:46 80° SW 08:54:37 10° SE daylight
03 Mar - 10:34:14 10° WSW 10:36:40 12° SW 10:38:40 10° SSW daylight
03 Mar - 19:42:31 10° SSW 19:46:50 38° SE 19:51:54 10° ENE visible
03 Mar - 21:30:17 10° W 21:34:45 28° NW 21:39:49 10° NNE visible
04 Mar - 06:43:39 10° NNW 06:49:27 26° NE 06:54:54 10° E daylight
04 Mar - 08:30:58 10° WNW 08:37:56 66° SW 08:43:51 10° SE daylight
04 Mar - 19:31:40 10° SSW 19:36:04 49° SE 19:41:13 10° ENE visible
04 Mar - 21:20:04 10° W 21:24:04 22° NW 21:28:27 10° NNE visible
05 Mar - 06:32:17 10° NNW 06:38:39 31° NE 06:44:32 10° E daylight
05 Mar - 08:20:05 10° WNW 08:27:01 54° SW 08:32:58 10° SE daylight
05 Mar - 19:20:47 10° SW 19:25:13 64° SE 19:30:22 10° ENE visible
05 Mar - 21:09:56 10° WNW 21:13:19 17° NNW 21:16:52 10° N visible
06 Mar - 06:20:55 10° NNW 06:27:44 37° NE 06:33:59 10° ESE daylight
06 Mar - 08:09:11 10° WNW 08:16:02 45° SW 08:21:56 10° SSE daylight
06 Mar - 19:09:54 10° SW 19:14:18 83° SE 19:19:24 10° NE visible
06 Mar - 21:00:04 10° WNW 21:02:31 13° NNW 21:04:55 10° N visible
07 Mar - 06:09:33 10° NNW 06:16:42 45° NE 06:23:16 10° ESE daylight
07 Mar - 07:58:17 10° WNW 08:04:58 38° SW 08:10:46 10° SSE daylight
07 Mar - 18:59:00 10° SW 19:03:20 75° NW 19:08:18 10° NE visible
08 Mar - 04:14:04 10° NNE 04:16:26 12° NNE 04:19:16 10° NE visible
08 Mar - 05:58:10 10° NW 06:05:35 54° NE 06:12:24 10° ESE daylight
08 Mar - 07:47:23 10° WNW 07:53:50 32° SW 07:59:29 10° SSE daylight
08 Mar - 17:02:53 10° SSE 17:04:46 13° SE 17:06:54 10° ESE daylight
08 Mar - 18:48:05 10° WSW 18:52:18 56° NW 18:57:03 10° NE visible
09 Mar - 04:01:41 10° N 04:05:23 15° NE 04:09:27 10° ENE visible
09 Mar - 05:46:46 10° NW 05:54:21 65° NE 06:01:23 10° ESE visible
09 Mar - 07:36:30 10° W 07:42:37 27° SW 07:48:02 10° SSE daylight
09 Mar - 16:51:04 10° S 16:53:42 17° SE 16:56:33 10° E daylight
09 Mar - 18:37:11 10° WSW 18:41:13 42° NW 18:45:41 10° NNE visible
10 Mar - 03:49:37 10° N 03:54:13 18° NE 03:59:08 10° ENE visible
10 Mar - 05:35:21 10° NW 05:43:02 77° NE 05:50:13 10° SE visible
10 Mar - 07:25:37 10° W 07:31:21 23° SW 07:36:27 10° S daylight
10 Mar - 16:39:24 10° S 16:42:33 21° SE 16:45:52 10° E daylight
10 Mar - 18:26:17 10° WSW 18:30:04 31° NW 18:34:09 10° NNE visible
11 Mar - 03:37:40 10° N 03:42:57 21° NE 03:48:30 10° E visible
11 Mar - 05:23:55 10° NW 05:31:38 89° NE 05:38:55 10° SE visible
11 Mar - 07:14:46 10° W 07:20:02 20° SW 07:24:41 10° S daylight
11 Mar - 16:27:48 10° SSW 16:31:19 28° SE 16:34:58 10° E daylight
11 Mar - 18:15:25 10° W 18:18:52 24° NW 18:22:29 10° NNE daylight
12 Mar - 03:25:46 10° NNW 03:31:34 25° NE 03:37:38 10° E visible
12 Mar - 05:12:26 10° NW 05:20:09 78° SW 05:27:30 10° SE visible
12 Mar - 07:04:00 10° WSW 07:08:39 17° SW 07:12:44 10° S daylight
12 Mar - 16:16:12 10° SSW 16:20:01 36° SE 16:23:54 10° ENE daylight
12 Mar - 18:04:37 10° W 18:07:35 18° NW 18:10:36 10° N daylight
